[[{"header":{"parameterUnit":"m.s-1","parameterCategory":1,"la1":30.2991,"la2":30.254,"lo1":-89.0895,"lo2":-89.0444,"dy":0.0017,"dx":0.0017,"nx":28,"ny":28,"refTime":"2025-01-09T09:00:00:Z","depth":0,"parameterNumber":2,"parameterNumberName":"U-component_of_WINDS"},"data":[0,0,0,0,0,0,0,0,0,0,0,0,0,0,0,0,0,0,0,0,0,0,0,0,0,0,0,0,0,0,0,0,0,0,0,0,0,0,0,0,0,0,0,0,0,0,0,0,0,0,0,0,0,0,0,0,0,0,1.3439,1.3439,0,1.3453,1.3453,1.3453,1.3454,1.3454,1.3454,1.3454,1.3466,1.3467,1.3467,0,0,0,0,0,0,0,0,0,0,0,0,0,1.3415,1.3416,1.3439,1.3439,1.344,1.3453,1.3453,1.3453,1.3454,1.3454,1.3454,1.3454,1.3466,1.3466,1.3467,0,0,0,0,0,0,0,0,0,0,0,0,0,1.3427,1.3416,1.3439,1.3442,1.3442,1.3452,1.3453,1.3453,1.3454,1.3454,1.3454,1.3454,1.3466,1.3466,1.3467,1.3475,0,0,1.3469,1.347,0,0,0,0,0,0,0,0,1.3426,1.3428,1.3441,1.3442,1.3442,1.3451,1.3449,1.346,1.3454,1.345,1.3454,1.3453,1.3461,1.3462,1.3465,1.3476,1.3477,1.3469,1.347,1.347,1.347,0,0,0,0,0,0,0,1.3425,1.3427,1.3445,1.3441,1.3442,1.3442,1.3444,1.3451,1.3456,1.345,1.345,1.3452,1.3461,1.3465,1.3466,1.3477,1.3469,1.347,1.347,1.3471,1.3497,1.3497,0,0,0,0,0,0,1.3424,1.3426,1.3444,1.3445,1.3434,1.3443,1.3445,1.3449,1.3456,1.3457,1.3452,1.3452,1.3464,1.3465,1.3466,1.3477,1.347,1.3471,1.3471,1.3496,1.3497,1.3497,0,0,0,0,0,0,1.3424,1.3426,1.3444,1.3436,1.3438,1.3444,1.3448,1.3449,1.3452,1.3458,1.3459,1.3454,1.3463,1.3465,1.3473,1.3477,1.3471,1.3472,1.3496,1.3496,1.3497,1.3498,0,0,0,0,0,0,1.3423,1.3426,1.3429,1.3436,1.3439,1.3451,1.3448,1.3449,1.3453,1.3453,1.346,1.3461,1.3463,1.3472,1.3474,1.3478,1.3472,1.3496,1.3496,1.3497,1.3498,1.3499,1.3499,0,0,0,0,0,1.3422,1.3428,1.3429,1.3431,1.3442,1.3451,1.3452,1.3455,1.3454,1.3457,1.3461,1.3461,1.3477,1.3473,1.3475,1.3479,1.3495,1.3496,1.3497,1.3498,1.3499,1.3499,0,0,0,0,0,0,1.342,1.3429,1.343,1.3438,1.3444,1.3451,1.3455,1.3456,1.3462,1.3462,1.3465,1.3467,1.3475,1.3478,1.3474,1.3489,1.3486,1.3487,1.3486,1.3487,1.3488,1.3486,1.3473,0,0,0,0,0,1.3421,1.3427,1.3434,1.3441,1.3444,1.3449,1.3453,1.3455,1.3461,1.3463,1.3468,1.3473,1.348,1.3484,1.349,1.3499,1.3501,1.3503,1.3504,1.3504,1.3505,1.3511,1.3512,1.3499,1.3499,1.3499,0,0,1.3422,1.3428,1.3431,1.3441,1.3446,1.3452,1.3451,1.3458,1.3463,1.3464,1.3472,1.3476,1.3483,1.3492,1.3496,1.3495,1.3509,1.3505,1.3505,1.3506,1.3511,1.3513,1.3514,1.3499,1.3499,1.3499,0,0,1.3427,1.3432,1.3439,1.3444,1.3451,1.3455,1.3457,1.3464,1.3467,1.3476,1.3477,1.3483,1.3494,1.3499,1.3503,1.3512,1.3512,1.3514,1.3518,1.3523,1.3524,1.3525,1.3529,1.353,1.3515,1.3515,1.3515,0,1.3428,1.3438,1.3442,1.3449,1.3454,1.3456,1.3463,1.3468,1.3477,1.348,1.3479,1.3493,1.3498,1.3508,1.3511,1.3514,1.3516,1.3513,1.3524,1.3525,1.3526,1.3529,1.3531,1.3515,1.3515,1.3515,1.3515,0,1.3438,1.3445,1.345,1.3459,1.3464,1.3471,1.3477,1.3481,1.3484,1.3487,1.3497,1.3503,1.3511,1.3514,1.3515,1.3525,1.3524,1.3523,1.3521,1.3527,1.3531,1.3532,1.3515,1.3515,1.3515,1.3515,0,0,1.3441,1.3454,1.3455,1.346,1.347,1.3475,1.3483,1.3491,1.3495,1.3502,1.3508,1.3518,1.3519,1.3523,1.3526,1.3531,1.3538,1.353,1.353,1.3531,1.355,1.355,1.3551,1.3539,1.354,1.354,1.3549,0,1.3447,1.3461,1.3466,1.3477,1.3484,1.3487,1.3494,1.3501,1.3505,1.3512,1.3517,1.3524,1.3523,1.3526,1.3531,1.3536,1.3542,1.3536,1.3545,1.3545,1.3543,1.3553,1.3553,1.3561,1.3551,1.3551,1.3551,0,1.3456,1.3464,1.3476,1.3486,1.3489,1.3494,1.3503,1.351,1.3517,1.352,1.3526,1.3529,1.3538,1.3535,1.3547,1.3543,1.3547,1.355,1.3551,1.3551,1.3548,1.3553,1.3564,1.3565,1.3553,1.3553,1.3553,0,1.3458,1.3471,1.348,1.3484,1.3495,1.3499,1.3504,1.3512,1.3517,1.3525,1.3529,1.3537,1.3542,1.3548,1.3553,1.3551,1.3565,1.3563,1.3568,1.3568,1.357,1.3569,1.3581,1.3573,1.3573,1.3573,1.3573,0,1.3464,1.3471,1.3481,1.3486,1.3495,1.3501,1.3509,1.3514,1.3521,1.3528,1.3532,1.3538,1.3545,1.3552,1.3557,1.3566,1.3568,1.3571,1.3572,1.357,1.357,1.3572,1.3572,1.3574,1.3574,1.3574,1.3573,0,1.3466,1.3473,1.3483,1.3494,1.3496,1.3502,1.3511,1.3517,1.3522,1.3531,1.3533,1.3541,1.3551,1.3557,1.3568,1.3571,1.3581,1.3582,1.3579,1.3579,1.3583,1.3583,1.3596,1.3599,1.359,1.359,1.359,0,1.3469,1.3475,1.3487,1.3492,1.3497,1.3505,1.3511,1.3517,1.3523,1.3533,1.3538,1.3547,1.3555,1.357,1.3577,1.3586,1.3587,1.3591,1.3588,1.3586,1.3586,1.3586,1.3587,1.3591,1.3591,1.3591,1.3591,0,1.3475,1.3478,1.3486,1.3496,1.3503,1.351,1.3518,1.3522,1.353,1.3536,1.3546,1.3552,1.3565,1.3574,1.3584,1.3589,1.3592,1.3592,1.3594,1.3592,1.359,1.3591,1.3579,1.3592,1.3592,1.3592,1.3592,1.3592,1.3478,1.3483,1.3492,1.3502,1.3508,1.3516,1.3522,1.3529,1.3537,1.3548,1.3551,1.3561,1.357,1.3584,1.359,1.3598,1.3598,1.36,1.36,1.3601,1.36,1.3589,1.36,1.36,1.36,1.36,1.36,0,1.3483,1.349,1.3498,1.3509,1.3517,1.3519,1.3528,1.3534,1.3543,1.3551,1.356,1.3571,1.3581,1.3589,1.3599,1.3604,1.3606,1.3606,1.3606,1.3607,1.36,1.3598,1.3605,1.3605,1.3605,1.3605,1.3605,1.3605,1.3487,1.3497,1.3501,1.3515,1.3521,1.3532,1.3537,1.3544,1.3551,1.3563,1.3572,1.3577,1.3586,1.3597,1.3606,1.3608,1.3612,1.3612,1.3615,1.3608,1.3607,1.3607,1.3605,1.3613,1.3613,1.3621,1.3621,1.3621]},{"header":{"parameterUnit":"m.s-1","parameterCategory":1,"la1":30.2991,"la2":30.254,"lo1":-89.0895,"lo2":-89.0444,"dy":0.0017,"dx":0.0017,"nx":28,"ny":28,"refTime":"2025-01-09T09:00:00:Z","depth":0,"parameterNumber":3,"parameterNumberName":"V-component_of_WINDS"},"data":[0,0,0,0,0,0,0,0,0,0,0,0,0,0,0,0,0,0,0,0,0,0,0,0,0,0,0,0,0,0,0,0,0,0,0,0,0,0,0,0,0,0,0,0,0,0,0,0,0,0,0,0,0,0,0,0,0,0,-5.8383,-5.8385,0,-5.8559,-5.8561,-5.8563,-5.8493,-5.8489,-5.8485,-5.8481,-5.8656,-5.8665,-5.8673,0,0,0,0,0,0,0,0,0,0,0,0,0,-5.7983,-5.7991,-5.8383,-5.8385,-5.8388,-5.8559,-5.8561,-5.8563,-5.8494,-5.8489,-5.8484,-5.8479,-5.8654,-5.8664,-5.8674,0,0,0,0,0,0,0,0,0,0,0,0,0,-5.8158,-5.7993,-5.8383,-5.8374,-5.8375,-5.8558,-5.8561,-5.8564,-5.8495,-5.8489,-5.8483,-5.8477,-5.865,-5.8663,-5.8675,-5.8876,0,0,-5.8714,-5.8719,0,0,0,0,0,0,0,0,-5.8148,-5.8172,-5.8373,-5.8375,-5.8376,-5.8498,-5.8484,-5.8669,-5.8497,-5.8449,-5.8481,-5.8474,-5.8608,-5.8624,-5.867,-5.8885,-5.8892,-5.8715,-5.8723,-5.8728,-5.8732,0,0,0,0,0,0,0,-5.8136,-5.8164,-5.8452,-5.8376,-5.8378,-5.8359,-5.8377,-5.8519,-5.8561,-5.8453,-5.8448,-5.847,-5.8608,-5.8658,-5.8674,-5.8895,-5.8715,-5.8726,-5.8734,-5.8739,-5.9283,-5.9289,0,0,0,0,0,0,-5.8124,-5.8155,-5.8447,-5.8458,-5.8245,-5.8372,-5.8392,-5.8465,-5.8559,-5.8568,-5.8475,-5.8466,-5.864,-5.8659,-5.868,-5.8922,-5.8728,-5.874,-5.8747,-5.9276,-5.9284,-5.9291,0,0,0,0,0,0,-5.8116,-5.8151,-5.844,-5.8305,-5.8341,-5.8385,-5.8468,-5.8472,-5.8522,-5.8576,-5.8583,-5.8519,-5.8636,-5.8662,-5.8828,-5.8927,-5.8746,-5.8757,-5.9268,-5.9278,-5.9288,-5.9408,0,0,0,0,0,0,-5.8104,-5.8148,-5.8226,-5.8308,-5.8348,-5.8587,-5.8474,-5.848,-5.8545,-5.8535,-5.8619,-5.8627,-5.8633,-5.881,-5.8841,-5.8941,-5.8767,-5.9259,-5.9272,-5.9285,-5.9396,-5.9421,-5.9443,0,0,0,0,0,-5.809,-5.8252,-5.823,-5.8266,-5.8447,-5.8593,-5.8616,-5.8621,-5.8553,-5.8631,-5.8666,-5.8625,-5.8911,-5.8827,-5.8862,-5.8968,-5.9253,-5.9269,-5.9284,-5.9385,-5.9416,-5.9443,0,0,0,0,0,0,-5.8179,-5.8262,-5.824,-5.8433,-5.8507,-5.8581,-5.868,-5.8653,-5.8747,-5.8734,-5.8733,-5.8753,-5.8925,-5.8962,-5.8868,-5.9167,-5.9072,-5.9095,-5.9137,-5.9167,-5.919,-5.9178,-5.8778,0,0,0,0,0,-5.8222,-5.8335,-5.8401,-5.8565,-5.8603,-5.8636,-5.8699,-5.8697,-5.8772,-5.8803,-5.885,-5.8924,-5.903,-5.91,-5.9201,-5.94,-5.9417,-5.949,-5.9514,-5.9533,-5.9553,-5.9661,-5.9694,-5.9342,-5.9342,-5.9341,0,0,-5.831,-5.8369,-5.8441,-5.8584,-5.8641,-5.8758,-5.8662,-5.8789,-5.8875,-5.8821,-5.8982,-5.9019,-5.9101,-5.9285,-5.9369,-5.9322,-5.9654,-5.9552,-5.9567,-5.9577,-5.968,-5.9713,-5.9743,-5.9352,-5.935,-5.9349,0,0,-5.8531,-5.8587,-5.873,-5.879,-5.8878,-5.8898,-5.8932,-5.9012,-5.9035,-5.9196,-5.9159,-5.926,-5.9443,-5.9504,-5.9559,-5.9802,-5.9768,-5.9835,-5.9959,-6.0065,-6.0093,-6.0117,-6.0204,-6.0236,-5.9854,-5.9855,-5.9855,0,-5.8629,-5.8804,-5.8806,-5.8938,-5.9001,-5.896,-5.9104,-5.9161,-5.9277,-5.9321,-5.9268,-5.9498,-5.955,-5.9748,-5.9807,-5.9853,-5.9891,-5.9826,-6.0089,-6.0113,-6.0136,-6.0219,-6.0252,-5.9862,-5.9861,-5.9861,-5.986,0,-5.8921,-5.9043,-5.9147,-5.9263,-5.9338,-5.9475,-5.9497,-5.9573,-5.9563,-5.9589,-5.9753,-5.9815,-5.9928,-5.9974,-5.9965,-6.0171,-6.0139,-6.0088,-5.9991,-6.0178,-6.0256,-6.0287,-5.9873,-5.9871,-5.9868,-5.9866,0,0,-5.9203,-5.9318,-5.9357,-5.9409,-5.9503,-5.9596,-5.973,-5.9843,-5.9908,-5.9989,-6.0101,-6.0258,-6.0211,-6.0273,-6.027,-6.0362,-6.0552,-6.0299,-6.0301,-6.0344,-6.0782,-6.0821,-6.0858,-6.0529,-6.0535,-6.054,-6.0775,0,-5.9431,-5.967,-5.9676,-5.9893,-6.0005,-5.9967,-6.0084,-6.0153,-6.0181,-6.0279,-6.0308,-6.0419,-6.0349,-6.0386,-6.0476,-6.051,-6.064,-6.0493,-6.0633,-6.0638,-6.0614,-6.0899,-6.0941,-6.116,-6.0806,-6.0811,-6.0815,0,-5.973,-5.9823,-6.0052,-6.013,-6.0178,-6.0283,-6.0386,-6.0481,-6.0558,-6.0572,-6.0642,-6.0625,-6.0761,-6.066,-6.0846,-6.0746,-6.0803,-6.0829,-6.0837,-6.0851,-6.0738,-6.0921,-6.123,-6.1263,-6.0863,-6.0859,-6.0855,0,-5.9914,-6.0096,-6.0257,-6.0302,-6.0397,-6.0472,-6.0515,-6.0586,-6.0653,-6.0743,-6.0786,-6.089,-6.0947,-6.1026,-6.1038,-6.0963,-6.1225,-6.1125,-6.1239,-6.1239,-6.1297,-6.1293,-6.162,-6.1333,-6.1332,-6.1331,-6.1331,0,-6.0169,-6.0311,-6.0341,-6.044,-6.0597,-6.0602,-6.0757,-6.0793,-6.0857,-6.0962,-6.0933,-6.1032,-6.104,-6.1141,-6.115,-6.1303,-6.1328,-6.1342,-6.1343,-6.1346,-6.1344,-6.1384,-6.1369,-6.134,-6.1338,-6.1337,-6.1335,0,-6.0402,-6.0427,-6.06,-6.0676,-6.0699,-6.0811,-6.0876,-6.097,-6.0994,-6.1126,-6.1157,-6.1195,-6.1312,-6.1331,-6.1468,-6.1474,-6.1658,-6.1642,-6.1633,-6.1631,-6.1744,-6.1733,-6.2109,-6.2158,-6.1838,-6.1841,-6.1843,0,-6.0563,-6.0672,-6.076,-6.0829,-6.0876,-6.0987,-6.1056,-6.1064,-6.1136,-6.1233,-6.1315,-6.1429,-6.1522,-6.171,-6.1748,-6.1853,-6.184,-6.1964,-6.1856,-6.1855,-6.1843,-6.1837,-6.1847,-6.1986,-6.1989,-6.1992,-6.1994,0,-6.0848,-6.0855,-6.0956,-6.1063,-6.1146,-6.123,-6.1308,-6.1366,-6.1384,-6.1466,-6.1587,-6.1658,-6.1799,-6.1912,-6.2016,-6.2058,-6.203,-6.2028,-6.206,-6.2064,-6.2054,-6.2062,-6.169,-6.202,-6.2017,-6.2015,-6.2014,-6.2013,-6.1051,-6.1145,-6.1223,-6.1336,-6.1397,-6.1471,-6.1563,-6.16,-6.1701,-6.1817,-6.1815,-6.1947,-6.2021,-6.2157,-6.2206,-6.2308,-6.2268,-6.2314,-6.2326,-6.2338,-6.2349,-6.2038,-6.2327,-6.2326,-6.2326,-6.2325,-6.2325,0,-6.1334,-6.1382,-6.1487,-6.1599,-6.1688,-6.1655,-6.174,-6.1816,-6.1933,-6.2005,-6.2097,-6.2235,-6.2345,-6.2393,-6.25,-6.2573,-6.2563,-6.2601,-6.2596,-6.2606,-6.2379,-6.2341,-6.2608,-6.2608,-6.2608,-6.2608,-6.2608,-6.2607,-6.1492,-6.1651,-6.1668,-6.1856,-6.1902,-6.2033,-6.2085,-6.2152,-6.221,-6.2366,-6.2458,-6.2489,-6.2551,-6.2663,-6.2762,-6.2773,-6.2814,-6.2859,-6.2864,-6.2651,-6.2622,-6.2595,-6.2559,-6.2868,-6.2868,-6.3083,-6.3085,-6.3087]}]]